Torna al catalogo

BREEZE-M DEB

TANK

AttivoHEO
NORAD 29649·DEBRIS·🇷🇺 Russia

Lanciato Dec 11, 2006 da Baikonur Cosmodrome

Loading…

Prossimi Passaggi (prossime 24 ore)

TLE

AggiornatoSource: Space-Track

Epoca: Sep 14, 2026, 10:54 UTC

1 29649U 06056B   26257.45435585  .00002671  00000-0  65354-3 0  9990
2 29649  49.5038 227.7288 5232631 154.7971 244.3591  5.21698049359158

Traccia BREEZE-M DEB in tempo reale con AllMySat

Download on the App Store